TimeEST,TemperatureF,Dew PointF,Humidity,Sea Level PressureIn,VisibilityMPH,Wind Direction,Wind SpeedMPH,Gust SpeedMPH,PrecipitationIn,Events,Conditions,WindDirDegrees,DateUTC
12:52 AM,39.9,30.9,70,30.39,10.0,East,8.1,-,N/A,,Partly Cloudy,90,2012-11-19 05:52:00
1:09 AM,41.0,32.0,70,30.38,10.0,ESE,6.9,-,N/A,,Mostly Cloudy,110,2012-11-19 06:09:00
1:52 AM,37.9,30.0,73,30.38,10.0,East,4.6,-,N/A,,Mostly Cloudy,80,2012-11-19 06:52:00
2:52 AM,37.9,30.0,73,30.38,10.0,East,4.6,-,N/A,,Overcast,100,2012-11-19 07:52:00
3:52 AM,37.9,30.0,73,30.37,10.0,East,5.8,-,N/A,,Overcast,100,2012-11-19 08:52:00
4:52 AM,37.9,30.9,76,30.37,10.0,East,4.6,-,N/A,,Overcast,90,2012-11-19 09:52:00
5:52 AM,39.0,32.0,76,30.38,10.0,ENE,3.5,-,N/A,,Overcast,70,2012-11-19 10:52:00
6:52 AM,39.0,33.1,79,30.38,10.0,East,4.6,-,N/A,,Overcast,80,2012-11-19 11:52:00
7:52 AM,39.0,34.0,82,30.38,10.0,East,4.6,-,N/A,,Overcast,90,2012-11-19 12:52:00
8:52 AM,41.0,35.1,79,30.37,10.0,Variable,3.5,-,N/A,,Overcast,0,2012-11-19 13:52:00
9:30 AM,42.8,37.4,81,30.36,10.0,East,3.5,-,N/A,,Overcast,90,2012-11-19 14:30:00
9:52 AM,43.0,37.0,80,30.37,10.0,Variable,3.5,-,N/A,,Overcast,0,2012-11-19 14:52:00
10:30 AM,46.4,37.4,71,30.35,10.0,Calm,Calm,-,N/A,,Scattered Clouds,0,2012-11-19 15:30:00
10:52 AM,48.9,37.9,66,30.35,10.0,Calm,Calm,-,N/A,,Clear,0,2012-11-19 15:52:00
11:52 AM,52.0,39.0,61,30.31,10.0,Variable,5.8,-,N/A,,Clear,0,2012-11-19 16:52:00
12:52 PM,53.1,37.9,57,30.27,10.0,East,3.5,-,N/A,,Clear,90,2012-11-19 17:52:00
1:52 PM,55.9,37.9,51,30.25,10.0,Calm,Calm,-,N/A,,Clear,0,2012-11-19 18:52:00
2:52 PM,59.0,37.9,46,30.23,10.0,Calm,Calm,-,N/A,,Clear,0,2012-11-19 19:52:00
3:52 PM,57.9,37.9,47,30.23,10.0,Calm,Calm,-,N/A,,Clear,0,2012-11-19 20:52:00
4:52 PM,54.0,37.0,53,30.24,10.0,East,4.6,-,N/A,,Clear,80,2012-11-19 21:52:00
5:52 PM,52.0,37.0,57,30.23,10.0,Calm,Calm,-,N/A,,Clear,0,2012-11-19 22:52:00
6:52 PM,50.0,37.0,61,30.23,10.0,ESE,4.6,-,N/A,,Clear,110,2012-11-19 23:52:00
7:52 PM,48.0,36.0,63,30.23,10.0,Calm,Calm,-,N/A,,Clear,0,2012-11-20 00:52:00
8:52 PM,48.0,35.1,61,30.22,10.0,Calm,Calm,-,N/A,,Clear,0,2012-11-20 01:52:00
9:52 PM,48.0,36.0,63,30.20,10.0,Calm,Calm,-,N/A,,Clear,0,2012-11-20 02:52:00
10:52 PM,46.0,36.0,68,30.19,10.0,Calm,Calm,-,N/A,,Clear,0,2012-11-20 03:52:00
11:52 PM,45.0,36.0,71,30.17,10.0,Calm,Calm,-,N/A,,Clear,0,2012-11-20 04:52:00